| time (UTC) | temp F | wind direction | speed MPH | gust MPH | rain 1hr in | rain 24hr in | rain mn in | humidity % | barometer mb |
| 20260901213124 | 78 | 234 | 0.0 | 4.0 | 0.00 | 0.00 | 0.00 | 52 | 1008.5 |
| 20260901212625 | 78 | 174 | 1.0 | 3.0 | 0.00 | 0.00 | 0.00 | 52 | 1008.5 |
| 20260901212123 | 78 | 288 | 0.0 | 7.0 | 0.00 | 0.00 | 0.00 | 52 | 1008.5 |
| 20260901211624 | 77 | 135 | 0.0 | 7.0 | 0.00 | 0.00 | 0.00 | 52 | 1008.5 |
| 20260901211123 | 78 | 270 | 0.0 | 2.0 | 0.00 | 0.00 | 0.00 | 53 | 1008.5 |
| 20260901210622 | 77 | 126 | 0.0 | 4.0 | 0.00 | 0.00 | 0.00 | 56 | 1008.5 |
| 20260901210123 | 77 | 33 | 2.0 | 4.0 | 0.00 | 0.00 | 0.00 | 52 | 1008.5 |
| 20260901205622 | 77 | 11 | 0.0 | 4.0 | 0.00 | 0.00 | 0.00 | 52 | 1008.5 |
| 20260901205122 | 78 | 60 | 0.0 | 6.0 | 0.00 | 0.00 | 0.00 | 52 | 1008.5 |
| 20260901204621 | 79 | 173 | 0.0 | 6.0 | 0.00 | 0.00 | 0.00 | 54 | 1008.5 |
| 20260901204122 | 80 | 120 | 0.0 | 5.0 | 0.00 | 0.00 | 0.00 | 54 | 1008.5 |
| 20260901203623 | 79 | 82 | 2.0 | 5.0 | 0.00 | 0.00 | 0.00 | 54 | 1008.5 |
| 20260901202620 | 80 | 144 | 2.0 | 5.0 | 0.00 | 0.00 | 0.00 | 51 | 1008.5 |
| 20260901202120 | 79 | 14 | 0.0 | 5.0 | 0.00 | 0.00 | 0.00 | 54 | 1008.5 |
| 20260901201621 | 80 | 187 | 0.0 | 4.0 | 0.00 | 0.00 | 0.00 | 57 | 1008.5 |
| 20260901200619 | 78 | 0 | 0.0 | 6.0 | 0.00 | 0.00 | 0.00 | 56 | 1009.0 |
| 20260901200120 | 78 | 8 | 0.0 | 5.0 | 0.00 | 0.00 | 0.00 | 56 | 1009.0 |
| 20260901195119 | 78 | 66 | 1.0 | 7.0 | 0.00 | 0.00 | 0.00 | 55 | 1008.5 |
| 20260901193618 | 77 | 326 | 3.0 | 8.0 | 0.00 | 0.00 | 0.00 | 58 | 1009.0 |
| 20260901192617 | 77 | 180 | 1.0 | 6.0 | 0.00 | 0.00 | 0.00 | 60 | 1009.0 |
| 20260901192117 | 76 | 195 | 0.0 | 6.0 | 0.00 | 0.00 | 0.00 | 55 | 1009.0 |
| 20260901191618 | 77 | 349 | 3.0 | 5.0 | 0.00 | 0.00 | 0.00 | 55 | 1009.0 |
| 20260901191116 | 78 | 0 | 0.0 | 3.0 | 0.00 | 0.00 | 0.00 | 57 | 1009.0 |
| 20260901190116 | 78 | 295 | 0.0 | 11.0 | 0.00 | 0.00 | 0.00 | 56 | 1009.0 |
| 20260901185114 | 79 | 145 | 0.0 | 6.0 | 0.00 | 0.00 | 0.00 | 52 | 1009.0 |
| 20260901184615 | 78 | 351 | 2.0 | 6.0 | 0.00 | 0.00 | 0.00 | 54 | 1009.0 |
| 20260901184116 | 78 | 146 | 2.0 | 6.0 | 0.00 | 0.00 | 0.00 | 55 | 1009.0 |
| 20260901183614 | 78 | 66 | 0.0 | 6.0 | 0.00 | 0.00 | 0.00 | 54 | 1009.0 |
| 20260901183114 | 78 | 114 | 2.0 | 6.0 | 0.00 | 0.00 | 0.00 | 57 | 1009.3 |
| 20260901182614 | 77 | 85 | 2.0 | 6.0 | 0.00 | 0.00 | 0.00 | 56 | 1009.3 |
| 20260901182113 | 77 | 4 | 0.0 | 8.0 | 0.00 | 0.00 | 0.00 | 56 | 1009.3 |
| 20260901181614 | 77 | 30 | 2.0 | 8.0 | 0.00 | 0.00 | 0.00 | 56 | 1009.3 |
| 20260901181113 | 78 | 117 | 1.0 | 5.0 | 0.00 | 0.00 | 0.00 | 56 | 1009.3 |
| 20260901180113 | 77 | 8 | 2.0 | 4.0 | 0.00 | 0.00 | 0.00 | 57 | 1009.0 |
| 20260901175611 | 77 | 150 | 2.0 | 4.0 | 0.00 | 0.00 | 0.00 | 56 | 1009.0 |
| 20260901175112 | 77 | 180 | 2.0 | 5.0 | 0.00 | 0.00 | 0.00 | 58 | 1009.3 |
| 20260901174611 | 76 | 131 | 2.0 | 5.0 | 0.00 | 0.00 | 0.00 | 57 | 1009.0 |
| 20260901174112 | 77 | 99 | 0.0 | 5.0 | 0.00 | 0.00 | 0.00 | 58 | 1009.0 |
| 20260901173614 | 77 | 183 | 2.0 | 6.0 | 0.00 | 0.00 | 0.00 | 54 | 1009.3 |
| 20260901173111 | 77 | 4 | 6.0 | 9.0 | 0.00 | 0.00 | 0.00 | 56 | 1009.3 |
| 20260901172610 | 76 | 39 | 3.0 | 9.0 | 0.00 | 0.00 | 0.00 | 59 | 1009.3 |
| 20260901172109 | 76 | 16 | 2.0 | 4.0 | 0.00 | 0.00 | 0.00 | 57 | 1009.0 |
| 20260901171609 | 76 | 172 | 0.0 | 6.0 | 0.00 | 0.00 | 0.00 | 56 | 1009.0 |
| 20260901171109 | 76 | 175 | 0.0 | 6.0 | 0.00 | 0.00 | 0.00 | 61 | 1009.0 |
| 20260901170610 | 76 | 255 | 1.0 | 5.0 | 0.00 | 0.00 | 0.00 | 59 | 1009.0 |
| 20260901170108 | 75 | 173 | 0.0 | 8.0 | 0.00 | 0.00 | 0.00 | 57 | 1009.3 |
| 20260901165608 | 75 | 180 | 1.0 | 8.0 | 0.00 | 0.00 | 0.00 | 57 | 1009.0 |
| 20260901165109 | 75 | 42 | 3.0 | 4.0 | 0.00 | 0.00 | 0.00 | 58 | 1009.3 |
| 20260901164107 | 74 | 180 | 0.0 | 4.0 | 0.00 | 0.00 | 0.00 | 59 | 1009.3 |
| 20260901163608 | 74 | 13 | 0.0 | 7.0 | 0.00 | 0.00 | 0.00 | 62 | 1009.3 |
| 20260901163107 | 73 | 101 | 4.0 | 7.0 | 0.00 | 0.00 | 0.00 | 60 | 1009.3 |
| 20260901162106 | 73 | 98 | 2.0 | 7.0 | 0.00 | 0.00 | 0.00 | 62 | 1009.3 |
| 20260901161606 | 73 | 127 | 2.0 | 5.0 | 0.00 | 0.00 | 0.00 | 62 | 1009.3 |
| 20260901161107 | 72 | 30 | 2.0 | 8.0 | 0.00 | 0.00 | 0.00 | 62 | 1009.3 |
| 20260901160605 | 72 | 18 | 1.0 | 8.0 | 0.00 | 0.00 | 0.00 | 64 | 1009.7 |
| 20260901155606 | 72 | 180 | 0.0 | 9.0 | 0.00 | 0.00 | 0.00 | 65 | 1009.7 |
| 20260901155104 | 72 | 117 | 0.0 | 9.0 | 0.00 | 0.00 | 0.00 | 65 | 1009.7 |
| 20260901154604 | 71 | 180 | 0.0 | 5.0 | 0.00 | 0.00 | 0.00 | 67 | 1009.3 |
| 20260901154104 | 71 | 353 | 1.0 | 5.0 | 0.00 | 0.00 | 0.00 | 65 | 1009.7 |
| 20260901152604 | 70 | 349 | 2.0 | 4.0 | 0.00 | 0.00 | 0.00 | 69 | 1009.7 |
| 20260901152102 | 70 | 97 | 0.0 | 4.0 | 0.00 | 0.00 | 0.00 | 71 | 1009.7 |
| 20260901151603 | 70 | 205 | 0.0 | 5.0 | 0.00 | 0.00 | 0.00 | 71 | 1009.7 |
| 20260901151101 | 69 | 354 | 1.0 | 6.0 | 0.00 | 0.00 | 0.00 | 70 | 1009.7 |
| 20260901150602 | 69 | 180 | 0.0 | 6.0 | 0.00 | 0.00 | 0.00 | 70 | 1009.7 |
| 20260901145602 | 69 | 23 | 2.0 | 6.0 | 0.00 | 0.00 | 0.00 | 70 | 1009.3 |
| 20260901145101 | 69 | 337 | 0.0 | 6.0 | 0.00 | 0.00 | 0.00 | 71 | 1009.3 |
| 20260901144602 | 70 | 139 | 2.0 | 5.0 | 0.00 | 0.00 | 0.00 | 72 | 1009.7 |
| 20260901144100 | 70 | 120 | 0.0 | 5.0 | 0.00 | 0.00 | 0.00 | 71 | 1009.3 |
| 20260901143601 | 69 | 90 | 0.0 | 6.0 | 0.00 | 0.00 | 0.00 | 70 | 1009.3 |
| 20260901143059 | 69 | 139 | 0.0 | 6.0 | 0.00 | 0.00 | 0.00 | 71 | 1009.3 |
| 20260901142058 | 68 | 140 | 2.0 | 4.0 | 0.00 | 0.00 | 0.00 | 72 | 1009.3 |
| 20260901141600 | 68 | 66 | 1.0 | 5.0 | 0.00 | 0.00 | 0.00 | 72 | 1009.3 |
| 20260901141058 | 68 | 352 | 0.0 | 4.0 | 0.00 | 0.00 | 0.00 | 73 | 1009.0 |
| 20260901140559 | 69 | 203 | 2.0 | 4.0 | 0.00 | 0.00 | 0.00 | 73 | 1009.0 |
| 20260901140057 | 68 | 8 | 3.0 | 3.0 | 0.00 | 0.00 | 0.00 | 74 | 1009.0 |
| 20260901135533 | 67 | 5 | 1.0 | 4.0 | 0.00 | 0.00 | 0.00 | 74 | 1009.0 |
| 20260901135031 | 67 | 133 | 0.0 | 4.0 | 0.00 | 0.00 | 0.00 | 74 | 1009.0 |
| 20260901134532 | 66 | 0 | 0.0 | 4.0 | 0.00 | 0.00 | 0.00 | 76 | 1009.0 |
| 20260901134031 | 66 | 75 | 1.0 | 3.0 | 0.00 | 0.00 | 0.00 | 76 | 1009.0 |
| 20260901133531 | 66 | 20 | 0.0 | 3.0 | 0.00 | 0.00 | 0.00 | 77 | 1009.0 |
| 20260901133030 | 65 | 102 | 0.0 | 3.0 | 0.00 | 0.00 | 0.00 | 79 | 1009.0 |
| 20260901132531 | 64 | 105 | 0.0 | 3.0 | 0.00 | 0.00 | 0.00 | 80 | 1009.0 |
| 20260901132029 | 62 | 0 | 0.0 | 2.0 | 0.00 | 0.00 | 0.00 | 84 | 1008.5 |
| 20260901131529 | 61 | 90 | 0.0 | 2.0 | 0.00 | 0.00 | 0.00 | 85 | 1008.5 |
| 20260901131029 | 60 | 90 | 0.0 | 2.0 | 0.00 | 0.00 | 0.00 | 87 | 1009.0 |
| 20260901130528 | 59 | 99 | 0.0 | 3.0 | 0.00 | 0.00 | 0.00 | 89 | 1008.5 |
| 20260901130029 | 59 | 106 | 0.0 | 3.0 | 0.00 | 0.00 | 0.00 | 88 | 1009.0 |
| 20260901125530 | 58 | 90 | 0.0 | 2.0 | 0.00 | 0.00 | 0.00 | 89 | 1009.0 |
| 20260901124530 | 57 | 344 | 2.0 | 2.0 | 0.00 | 0.00 | 0.00 | 92 | 1009.0 |
| 20260901124028 | 56 | 81 | 0.0 | 2.0 | 0.00 | 0.00 | 0.00 | 93 | 1009.0 |
| 20260901123530 | 56 | 114 | 2.0 | 2.0 | 0.00 | 0.00 | 0.00 | 95 | 1009.3 |
| 20260901123030 | 55 | 82 | 1.0 | 2.0 | 0.00 | 0.00 | 0.00 | 95 | 1009.0 |
| 20260901122530 | 55 | 90 | 0.0 | 2.0 | 0.00 | 0.00 | 0.00 | 95 | 1009.0 |
| 20260901122030 | 55 | 106 | 0.0 | 1.0 | 0.00 | 0.00 | 0.00 | 95 | 1009.0 |
| 20260901121530 | 54 | 90 | 0.0 | 2.0 | 0.00 | 0.00 | 0.00 | 96 | 1009.0 |
| 20260901121029 | 54 | 90 | 0.0 | 2.0 | 0.00 | 0.00 | 0.00 | 96 | 1009.3 |
| 20260901120530 | 54 | 99 | 0.0 | 1.0 | 0.00 | 0.00 | 0.00 | 96 | 1009.0 |
| 20260901115530 | 53 | 99 | 0.0 | 1.0 | 0.00 | 0.00 | 0.00 | 97 | 1008.5 |
| 20260901115029 | 53 | 99 | 0.0 | 2.0 | 0.00 | 0.00 | 0.00 | 97 | 1008.5 |
| 20260901114029 | 53 | 90 | 0.0 | 1.0 | 0.00 | 0.00 | 0.00 | 97 | 1008.5 |
| 20260901113030 | 53 | 90 | 0.0 | 0.0 | 0.00 | 0.00 | 0.00 | 97 | 1008.5 |
| 20260901112530 | 53 | 6 | 0.0 | 1.0 | 0.00 | 0.00 | 0.00 | 97 | 1008.5 |
| 20260901111530 | 53 | 0 | 1.0 | 1.0 | 0.00 | 0.00 | 0.00 | 97 | 1008.5 |
| 20260901111029 | 53 | 15 | 0.0 | 1.0 | 0.00 | 0.00 | 0.00 | 97 | 1008.5 |
| 20260901110530 | 53 | 99 | 0.0 | 0.0 | 0.00 | 0.00 | 0.00 | 96 | 1008.5 |
| 20260901110030 | 53 | 0 | 0.0 | 0.0 | 0.00 | 0.00 | 0.00 | 96 | 1008.5 |
| 20260901105531 | 53 | 0 | 0.0 | 0.0 | 0.00 | 0.00 | 0.00 | 96 | 1008.2 |
| 20260901105029 | 53 | 0 | 0.0 | 1.0 | 0.00 | 0.00 | 0.00 | 96 | 1008.2 |
| 20260901104530 | 53 | 7 | 0.0 | 2.0 | 0.00 | 0.00 | 0.00 | 96 | 1008.2 |
| 20260901104028 | 53 | 0 | 0.0 | 2.0 | 0.00 | 0.00 | 0.00 | 96 | 1008.2 |
| 20260901103531 | 53 | 99 | 0.0 | 1.0 | 0.00 | 0.00 | 0.00 | 96 | 1008.2 |
| 20260901103029 | 53 | 0 | 0.0 | 1.0 | 0.00 | 0.00 | 0.00 | 96 | 1008.2 |
| 20260901102530 | 53 | 15 | 0.0 | 1.0 | 0.00 | 0.00 | 0.00 | 96 | 1008.2 |
| 20260901102029 | 53 | 8 | 0.0 | 1.0 | 0.00 | 0.00 | 0.00 | 95 | 1008.2 |
| 20260901101531 | 54 | 345 | 0.0 | 1.0 | 0.00 | 0.00 | 0.00 | 94 | 1008.2 |
| 20260901101029 | 54 | 0 | 0.0 | 1.0 | 0.00 | 0.00 | 0.00 | 94 | 1008.2 |
| 20260901100530 | 55 | 60 | 0.0 | 1.0 | 0.00 | 0.00 | 0.00 | 94 | 1008.2 |
| 20260901100029 | 55 | 81 | 0.0 | 0.0 | 0.00 | 0.00 | 0.00 | 94 | 1008.5 |
| 20260901095029 | 54 | 8 | 0.0 | 0.0 | 0.00 | 0.00 | 0.00 | 93 | 1008.2 |
| 20260901094528 | 55 | 0 | 0.0 | 0.0 | 0.00 | 0.00 | 0.00 | 93 | 1008.2 |
| 20260901094029 | 55 | 0 | 0.0 | 0.0 | 0.00 | 0.00 | 0.00 | 93 | 1008.2 |
| 20260901093531 | 55 | 0 | 0.0 | 0.0 | 0.00 | 0.00 | 0.00 | 92 | 1008.2 |
| 20260901093029 | 55 | 0 | 0.0 | 0.0 | 0.00 | 0.00 | 0.00 | 92 | 1008.2 |
| 20260901092530 | 55 | 0 | 0.0 | 0.0 | 0.00 | 0.00 | 0.00 | 92 | 1008.2 |
| 20260901092029 | 55 | 0 | 0.0 | 1.0 | 0.00 | 0.00 | 0.00 | 92 | 1007.9 |
| 20260901091530 | 56 | 74 | 1.0 | 1.0 | 0.00 | 0.00 | 0.00 | 91 | 1008.2 |
| 20260901091030 | 56 | 90 | 0.0 | 0.0 | 0.00 | 0.00 | 0.00 | 91 | 1008.2 |
| 20260901090029 | 56 | 90 | 0.0 | 0.0 | 0.00 | 0.00 | 0.00 | 91 | 1008.2 |
| 20260901085029 | 56 | 90 | 0.0 | 0.0 | 0.00 | 0.00 | 0.00 | 90 | 1007.9 |
| 20260901084530 | 56 | 90 | 0.0 | 0.0 | 0.00 | 0.00 | 0.00 | 90 | 1008.2 |
| 20260901084029 | 56 | 99 | 0.0 | 1.0 | 0.00 | 0.00 | 0.00 | 89 | 1008.2 |
| 20260901083530 | 56 | 105 | 0.0 | 1.0 | 0.00 | 0.00 | 0.00 | 89 | 1007.9 |
| 20260901082531 | 56 | 90 | 0.0 | 1.0 | 0.00 | 0.00 | 0.00 | 89 | 1007.9 |
| 20260901082029 | 56 | 90 | 0.0 | 1.0 | 0.00 | 0.00 | 0.00 | 89 | 1007.9 |
| 20260901081530 | 57 | 20 | 0.0 | 1.0 | 0.00 | 0.01 | 0.00 | 89 | 1007.9 |
| 20260901081029 | 57 | 165 | 0.0 | 1.0 | 0.00 | 0.01 | 0.00 | 88 | 1007.9 |
| 20260901080530 | 57 | 165 | 0.0 | 1.0 | 0.00 | 0.01 | 0.00 | 88 | 1007.9 |
| 20260901075530 | 58 | 8 | 0.0 | 1.0 | 0.00 | 0.08 | 0.00 | 87 | 1007.9 |
| 20260901075029 | 58 | 23 | 0.0 | 1.0 | 0.00 | 0.08 | 0.00 | 87 | 1007.9 |
| 20260901074029 | 58 | 81 | 0.0 | 1.0 | 0.00 | 0.08 | 0.00 | 86 | 1008.2 |
| 20260901073530 | 58 | 74 | 0.0 | 1.0 | 0.00 | 0.08 | 0.00 | 86 | 1007.9 |
| 20260901073029 | 58 | 8 | 0.0 | 2.0 | 0.00 | 0.08 | 0.00 | 85 | 1007.9 |
| 20260901072530 | 58 | 74 | 0.0 | 2.0 | 0.00 | 0.08 | 0.00 | 85 | 1008.2 |
| 20260901072028 | 58 | 154 | 0.0 | 2.0 | 0.00 | 0.08 | 0.00 | 85 | 1007.9 |
| 20260901071531 | 59 | 90 | 0.0 | 0.0 | 0.00 | 0.08 | 0.00 | 84 | 1008.2 |
| 20260901071029 | 59 | 0 | 0.0 | 1.0 | 0.00 | 0.08 | 0.00 | 84 | 1008.2 |
| 20260901070029 | 59 | 345 | 0.0 | 1.0 | 0.00 | 0.08 | 0.00 | 82 | 1007.9 |
| 20260901065530 | 60 | 345 | 0.0 | 1.0 | 0.00 | 0.08 | 0.00 | 82 | 1008.2 |
| 20260901065028 | 60 | 90 | 0.0 | 0.0 | 0.00 | 0.08 | 0.00 | 80 | 1008.2 |
| 20260901064531 | 61 | 81 | 0.0 | 0.0 | 0.00 | 0.08 | 0.00 | 79 | 1008.2 |
| 20260901064030 | 61 | 75 | 0.0 | 0.0 | 0.00 | 0.08 | 0.00 | 79 | 1007.9 |
| 20260901063531 | 62 | 75 | 0.0 | 0.0 | 0.00 | 0.08 | 0.00 | 77 | 1008.2 |
| 20260901063029 | 62 | 90 | 0.0 | 1.0 | 0.00 | 0.08 | 0.00 | 76 | 1008.2 |
| 20260901062531 | 62 | 90 | 0.0 | 2.0 | 0.00 | 0.09 | 0.00 | 75 | 1008.2 |
| 20260901062029 | 63 | 84 | 1.0 | 2.0 | 0.00 | 0.24 | 0.00 | 75 | 1007.5 |
| 20260901061530 | 63 | 106 | 0.0 | 2.0 | 0.00 | 0.24 | 0.00 | 77 | 1007.9 |
| 20260901061030 | 63 | 82 | 0.0 | 2.0 | 0.00 | 0.24 | 0.00 | 74 | 1007.5 |
| 20260901060531 | 63 | 90 | 1.0 | 2.0 | 0.00 | 0.24 | 0.00 | 75 | 1007.5 |
| 20260901060028 | 63 | 98 | 0.0 | 2.0 | 0.00 | 0.24 | 0.00 | 76 | 1007.9 |
| 20260901055529 | 63 | 81 | 0.0 | 3.0 | 0.00 | 0.24 | 0.00 | 75 | 1007.5 |
| 20260901054027 | 64 | 121 | 2.0 | 7.0 | 0.00 | 0.24 | 0.00 | 73 | 1007.5 |
| 20260901053528 | 64 | 135 | 2.0 | 7.0 | 0.00 | 0.24 | 0.00 | 75 | 1007.5 |
| 20260901053027 | 64 | 90 | 1.0 | 3.0 | 0.00 | 0.24 | 0.00 | 75 | 1007.2 |
| 20260901052528 | 63 | 90 | 0.0 | 2.0 | 0.00 | 0.24 | 0.00 | 77 | 1007.2 |
| 20260901052026 | 64 | 8 | 0.0 | 3.0 | 0.00 | 0.24 | 0.00 | 76 | 1007.2 |
| 20260901051528 | 64 | 90 | 0.0 | 3.0 | 0.00 | 0.24 | 0.00 | 74 | 1006.9 |
| 20260901051025 | 63 | 157 | 0.0 | 1.0 | 0.00 | 0.24 | 0.00 | 75 | 1007.2 |
| 20260901050526 | 64 | 0 | 0.0 | 1.0 | 0.00 | 0.24 | 0.00 | 74 | 1006.9 |
| 20260901050025 | 64 | 286 | 0.0 | 3.0 | 0.00 | 0.24 | 0.00 | 75 | 1006.9 |
| 20260901045526 | 64 | 7 | 1.0 | 3.0 | 0.00 | 0.24 | 0.24 | 74 | 1006.9 |
| 20260901045024 | 64 | 8 | 0.0 | 2.0 | 0.00 | 0.24 | 0.24 | 73 | 1007.2 |
| 20260901044524 | 64 | 345 | 0.0 | 1.0 | 0.00 | 0.24 | 0.24 | 74 | 1007.2 |
| 20260901044023 | 64 | 111 | 0.0 | 1.0 | 0.00 | 0.24 | 0.24 | 73 | 1006.9 |
| 20260901043524 | 64 | 0 | 0.0 | 2.0 | 0.00 | 0.24 | 0.24 | 73 | 1006.9 |
| 20260901043023 | 65 | 166 | 0.0 | 2.0 | 0.00 | 0.24 | 0.24 | 73 | 1006.9 |
| 20260901042524 | 65 | 98 | 0.0 | 2.0 | 0.00 | 0.24 | 0.24 | 73 | 1007.2 |
| 20260901041524 | 64 | 270 | 0.0 | 3.0 | 0.00 | 0.24 | 0.24 | 73 | 1006.9 |
| 20260901040523 | 64 | 7 | 0.0 | 3.0 | 0.00 | 0.24 | 0.24 | 74 | 1006.9 |
| 20260901034521 | 65 | 7 | 0.0 | 2.0 | 0.00 | 0.24 | 0.24 | 73 | 1006.9 |
| 20260901034020 | 65 | 75 | 0.0 | 2.0 | 0.00 | 0.24 | 0.24 | 73 | 1006.9 |
| 20260901033020 | 65 | 160 | 0.0 | 2.0 | 0.00 | 0.24 | 0.24 | 74 | 1006.9 |
| 20260901032521 | 65 | 15 | 0.0 | 2.0 | 0.00 | 0.24 | 0.24 | 74 | 1006.5 |
| 20260901032019 | 65 | 166 | 0.0 | 2.0 | 0.00 | 0.24 | 0.24 | 74 | 1006.9 |
| 20260901031018 | 66 | 8 | 0.0 | 2.0 | 0.00 | 0.24 | 0.24 | 73 | 1007.2 |
| 20260901030520 | 67 | 165 | 0.0 | 2.0 | 0.00 | 0.24 | 0.24 | 73 | 1006.9 |
| 20260901030018 | 67 | 209 | 0.0 | 2.0 | 0.00 | 0.24 | 0.24 | 72 | 1006.9 |
| 20260901025018 | 68 | 345 | 0.0 | 2.0 | 0.00 | 0.24 | 0.24 | 71 | 1006.9 |
| 20260901024019 | 68 | 345 | 0.0 | 3.0 | 0.00 | 0.24 | 0.24 | 71 | 1006.9 |
| 20260901023516 | 67 | 194 | 0.0 | 2.0 | 0.00 | 0.24 | 0.24 | 71 | 1006.9 |
| 20260901023016 | 67 | 220 | 0.0 | 2.0 | 0.00 | 0.24 | 0.24 | 71 | 1006.9 |
| 20260901022515 | 68 | 8 | 0.0 | 2.0 | 0.00 | 0.24 | 0.24 | 70 | 1006.9 |
| 20260901022015 | 68 | 352 | 0.0 | 2.0 | 0.00 | 0.24 | 0.24 | 71 | 1006.9 |
| 20260901021515 | 68 | 279 | 0.0 | 3.0 | 0.00 | 0.24 | 0.24 | 69 | 1006.9 |
| 20260901021015 | 68 | 270 | 0.0 | 3.0 | 0.00 | 0.24 | 0.24 | 70 | 1006.9 |
| 20260901020516 | 69 | 213 | 2.0 | 2.0 | 0.00 | 0.24 | 0.24 | 69 | 1006.9 |
| 20260901020001 | 69 | 294 | 2.0 | 2.0 | 0.00 | 0.24 | 0.24 | 69 | 1006.9 |
| 20260901015503 | 69 | 261 | 0.0 | 2.0 | 0.00 | 0.24 | 0.24 | 68 | 1006.5 |
| 20260901015001 | 69 | 337 | 0.0 | 2.0 | 0.00 | 0.24 | 0.24 | 68 | 1006.5 |
| 20260901014503 | 69 | 270 | 0.0 | 2.0 | 0.00 | 0.24 | 0.24 | 67 | 1006.5 |
| 20260901014001 | 69 | 307 | 0.0 | 2.0 | 0.00 | 0.24 | 0.24 | 66 | 1006.5 |
| 20260901013502 | 70 | 279 | 0.0 | 2.0 | 0.00 | 0.24 | 0.24 | 66 | 1006.1 |
| 20260901013001 | 70 | 117 | 0.0 | 2.0 | 0.00 | 0.24 | 0.24 | 65 | 1006.5 |
| 20260901012503 | 70 | 294 | 1.0 | 2.0 | 0.00 | 0.24 | 0.24 | 66 | 1006.5 |
| 20260901012001 | 71 | 281 | 0.0 | 2.0 | 0.00 | 0.24 | 0.24 | 64 | 1006.1 |
| 20260901011501 | 71 | 6 | 0.0 | 2.0 | 0.00 | 0.24 | 0.24 | 63 | 1006.1 |
| 20260901011000 | 71 | 254 | 0.0 | 2.0 | 0.00 | 0.24 | 0.24 | 63 | 1006.1 |
| 20260901010501 | 72 | 277 | 0.0 | 2.0 | 0.00 | 0.24 | 0.24 | 62 | 1006.1 |
| 20260901010001 | 72 | 291 | 0.0 | 4.0 | 0.00 | 0.24 | 0.24 | 61 | 1006.1 |
| 20260901005501 | 73 | 270 | 0.0 | 4.0 | 0.00 | 0.24 | 0.24 | 60 | 1006.1 |
| 20260901005002 | 73 | 249 | 0.0 | 2.0 | 0.00 | 0.24 | 0.24 | 59 | 1006.5 |
| 20260901004000 | 74 | 233 | 2.0 | 3.0 | 0.00 | 0.24 | 0.24 | 57 | 1006.1 |
| 20260901003004 | 75 | 90 | 0.0 | 5.0 | 0.00 | 0.24 | 0.24 | 56 | 1006.5 |
| 20260901002001 | 75 | 0 | 0.0 | 5.0 | 0.00 | 0.24 | 0.24 | 55 | 1006.5 |
| 20260901001500 | 76 | 264 | 0.0 | 5.0 | 0.00 | 0.24 | 0.24 | 54 | 1006.1 |
| 20260901000004 | 77 | 270 | 0.0 | 4.0 | 0.00 | 0.24 | 0.24 | 52 | 1006.1 |
| 20260831235501 | 77 | 140 | 0.0 | 4.0 | 0.00 | 0.24 | 0.24 | 52 | 1006.5 |
| 20260831235001 | 78 | 15 | 1.0 | 4.0 | 0.00 | 0.24 | 0.24 | 49 | 1006.5 |
| 20260831234502 | 79 | 107 | 2.0 | 3.0 | 0.00 | 0.24 | 0.24 | 48 | 1006.1 |
| 20260831234001 | 80 | 11 | 2.0 | 5.0 | 0.00 | 0.24 | 0.24 | 48 | 1006.5 |
| 20260831233502 | 80 | 315 | 2.0 | 5.0 | 0.00 | 0.24 | 0.24 | 46 | 1006.5 |
| 20260831233002 | 80 | 23 | 2.0 | 6.0 | 0.00 | 0.24 | 0.24 | 45 | 1006.5 |
| 20260831232503 | 80 | 90 | 0.0 | 6.0 | 0.00 | 0.24 | 0.24 | 46 | 1006.5 |
| 20260831232001 | 80 | 7 | 2.0 | 6.0 | 0.00 | 0.24 | 0.24 | 47 | 1006.5 |
| 20260831231001 | 79 | 145 | 6.0 | 7.0 | 0.00 | 0.24 | 0.24 | 47 | 1006.5 |
| 20260831230503 | 79 | 0 | 0.0 | 6.0 | 0.00 | 0.24 | 0.24 | 46 | 1006.5 |
| 20260831230001 | 79 | 145 | 1.0 | 6.0 | 0.00 | 0.24 | 0.24 | 46 | 1006.9 |
| 20260831225501 | 79 | 57 | 2.0 | 5.0 | 0.00 | 0.24 | 0.24 | 46 | 1006.5 |
| 20260831225001 | 80 | 77 | 0.0 | 5.0 | 0.00 | 0.24 | 0.24 | 45 | 1006.5 |
| 20260831224502 | 81 | 135 | 2.0 | 7.0 | 0.00 | 0.24 | 0.24 | 44 | 1006.5 |
| 20260831223501 | 82 | 348 | 1.0 | 6.0 | 0.00 | 0.24 | 0.24 | 42 | 1006.5 |
| 20260831223006 | 82 | 105 | 0.0 | 5.0 | 0.00 | 0.24 | 0.24 | 42 | 1006.9 |
| 20260831222503 | 81 | 300 | 2.0 | 6.0 | 0.00 | 0.24 | 0.24 | 43 | 1006.1 |
| 20260831222001 | 81 | 349 | 4.0 | 6.0 | 0.00 | 0.24 | 0.24 | 40 | 1006.5 |
| 20260831221502 | 82 | 286 | 0.0 | 5.0 | 0.00 | 0.24 | 0.24 | 42 | 1006.5 |
| 20260831221000 | 82 | 180 | 0.0 | 5.0 | 0.00 | 0.24 | 0.24 | 44 | 1006.1 |
| 20260831220503 | 82 | 173 | 1.0 | 6.0 | 0.00 | 0.24 | 0.24 | 40 | 1006.5 |
| 20260831220002 | 82 | 133 | 3.0 | 9.0 | 0.00 | 0.24 | 0.24 | 42 | 1006.1 |
| 20260831215001 | 82 | 180 | 2.0 | 6.0 | 0.00 | 0.24 | 0.24 | 45 | 1006.5 |
| 20260831214502 | 82 | 51 | 2.0 | 6.0 | 0.00 | 0.24 | 0.24 | 42 | 1006.5 |
| 20260831214001 | 83 | 66 | 0.0 | 4.0 | 0.00 | 0.24 | 0.24 | 43 | 1006.5 |